Location: Doverdale
(52.2833°N, 2.2000°W)
Time: 12:21:12
(UTC+00:00)

Cosmos 2297 Rocket - Pass Details

Date: 29 October 2020
Orbit: 838 x 845 km, 71.0° (Epoch: 24 November)

Event Time Altitude Azimuth Distance (km) Brightness Sun altitude
Rises 17:28:25 0° 328° (NNW) 3,417 5.6 -7.2°
Reaches altitude 10° 17:30:52 10° 330° (NNW) 2,478 4.9 -7.6°
Maximum altitude 17:36:35 84° 60° (ENE) 856 2.2 -8.5°
Drops below altitude 10° 17:42:15 10° 148° (SSE) 2,461 4.4 -9.3°
Sets 17:44:41 0° 149° (SSE) 3,391 5.1 -9.7°
